Radiation Dose at Monitoring Post of Fukushima Daini Nuclear Power Station
Date,Time,MP-1(microSv/h),MP-2(microSv/h),MP-3(microSv/h),MP-4(microSv/h),MP-5(microSv/h),MP-6(microSv/h),MP-7(microSv/h),Wind Direction,Wind Velocity(m/s),Rain
2021/11/30,00:00,0.159,0.146,0.226,0.222,0.226,0.124,0.080,north,0.9,No
2021/11/30,00:10,0.160,0.147,0.228,0.221,0.226,0.125,0.079,north-northwest,1.2,No
2021/11/30,00:20,0.159,0.146,0.228,0.221,0.227,0.124,0.080,north-northeast,0.9,No
2021/11/30,00:30,0.159,0.146,0.227,0.222,0.226,0.125,0.079,-,CALM,No
2021/11/30,00:40,0.159,0.146,0.227,0.221,0.226,0.125,0.080,south-southwest,0.9,No
2021/11/30,00:50,0.159,0.146,0.228,0.221,0.227,0.124,0.079,southwest,0.7,No
2021/11/30,01:00,0.159,0.147,0.227,0.222,0.226,0.124,0.079,-,CALM,No
2021/11/30,01:10,0.160,0.146,0.226,0.221,0.226,0.124,0.079,-,CALM,No
2021/11/30,01:20,0.159,0.145,0.227,0.221,0.227,0.123,0.080,-,CALM,No
2021/11/30,01:30,0.159,0.147,0.227,0.222,0.226,0.124,0.079,-,CALM,No
2021/11/30,01:40,0.158,0.147,0.227,0.222,0.227,0.125,0.079,-,CALM,No
2021/11/30,01:50,0.158,0.146,0.227,0.221,0.227,0.124,0.079,-,CALM,No
2021/11/30,02:00,0.160,0.146,0.227,0.222,0.226,0.125,0.078,east-northeast,0.7,No
2021/11/30,02:10,0.159,0.145,0.227,0.221,0.226,0.125,0.079,east-northeast,1.4,No
2021/11/30,02:20,0.159,0.147,0.226,0.222,0.227,0.124,0.080,east-northeast,1.5,No
2021/11/30,02:30,0.158,0.146,0.227,0.221,0.226,0.124,0.079,east-northeast,0.9,No
2021/11/30,02:40,0.159,0.145,0.227,0.221,0.226,0.124,0.079,east-southeast,0.6,No
2021/11/30,02:50,0.159,0.145,0.227,0.222,0.227,0.124,0.080,-,CALM,No
2021/11/30,03:00,0.158,0.145,0.228,0.221,0.227,0.124,0.080,-,CALM,No
2021/11/30,03:10,0.159,0.145,0.227,0.222,0.226,0.124,0.079,-,CALM,No
2021/11/30,03:20,0.159,0.146,0.227,0.222,0.226,0.124,0.079,south-southeast,0.7,No
2021/11/30,03:30,0.159,0.146,0.227,0.221,0.225,0.125,0.080,south,0.9,No
2021/11/30,03:40,0.159,0.146,0.226,0.221,0.225,0.125,0.079,south-southwest,0.9,No
2021/11/30,03:50,0.159,0.146,0.226,0.222,0.225,0.124,0.079,south-southwest,2.8,No
2021/11/30,04:00,0.160,0.145,0.227,0.221,0.227,0.124,0.079,south,2.9,No
2021/11/30,04:10,0.158,0.146,0.227,0.221,0.226,0.123,0.079,south,3.1,No
2021/11/30,04:20,0.159,0.146,0.226,0.222,0.225,0.123,0.079,south,3.5,No
2021/11/30,04:30,0.160,0.146,0.227,0.221,0.226,0.125,0.079,south-southeast,2.9,No
2021/11/30,04:40,0.159,0.146,0.226,0.221,0.225,0.124,0.079,south-southeast,2.6,No
2021/11/30,04:50,0.159,0.146,0.227,0.221,0.224,0.124,0.079,south-southeast,1.7,No
2021/11/30,05:00,0.158,0.146,0.227,0.221,0.226,0.123,0.079,south,1.3,No
2021/11/30,05:10,0.160,0.146,0.226,0.222,0.226,0.124,0.079,-,CALM,No
2021/11/30,05:20,0.159,0.146,0.227,0.222,0.226,0.124,0.079,-,CALM,No
2021/11/30,05:30,0.158,0.146,0.227,0.221,0.226,0.124,0.079,southeast,0.7,No
2021/11/30,05:40,0.158,0.146,0.227,0.220,0.226,0.124,0.080,southeast,1.1,No
2021/11/30,05:50,0.158,0.146,0.226,0.222,0.226,0.124,0.079,south-southeast,0.8,No
2021/11/30,06:00,0.160,0.146,0.226,0.220,0.226,0.123,0.079,southeast,0.8,No
2021/11/30,06:10,0.160,0.146,0.227,0.222,0.226,0.124,0.080,southeast,1.5,No
2021/11/30,06:20,0.159,0.146,0.227,0.220,0.226,0.124,0.080,southeast,1.4,No
2021/11/30,06:30,0.159,0.147,0.228,0.221,0.226,0.125,0.079,southeast,1.3,No
2021/11/30,06:40,0.159,0.146,0.226,0.221,0.227,0.123,0.079,southeast,1.3,No
2021/11/30,06:50,0.159,0.146,0.227,0.221,0.226,0.124,0.079,-,CALM,No
2021/11/30,07:00,0.159,0.146,0.228,0.221,0.225,0.124,0.079,-,CALM,No
2021/11/30,07:10,0.160,0.146,0.227,0.221,0.226,0.124,0.080,south-southeast,1.1,No
2021/11/30,07:20,0.160,0.145,0.228,0.221,0.227,0.124,0.080,south-southeast,1.6,No
2021/11/30,07:30,0.159,0.145,0.227,0.220,0.228,0.124,0.079,south-southwest,1.4,No
2021/11/30,07:40,0.159,0.146,0.226,0.221,0.226,0.124,0.079,south-southwest,1.1,No
2021/11/30,07:50,0.158,0.146,0.227,0.221,0.227,0.125,0.079,south-southwest,1.0,No
2021/11/30,08:00,0.160,0.146,0.226,0.220,0.227,0.125,0.079,south-southwest,1.0,No
2021/11/30,08:10,0.160,0.146,0.227,0.220,0.227,0.124,0.079,south,1.5,No
2021/11/30,08:20,0.158,0.146,0.227,0.220,0.227,0.125,0.079,south,1.5,No
2021/11/30,08:30,0.160,0.146,0.226,0.221,0.225,0.124,0.078,south,2.1,No
2021/11/30,08:40,0.159,0.146,0.227,0.220,0.226,0.125,0.079,south,2.1,No
2021/11/30,08:50,0.160,0.146,0.228,0.221,0.227,0.123,0.079,south,2.7,No
2021/11/30,09:00,0.158,0.146,0.226,0.220,0.226,0.124,0.079,south,3.2,No
2021/11/30,09:10,0.159,0.145,0.227,0.221,0.226,0.124,0.080,south,2.7,No
2021/11/30,09:20,0.160,0.146,0.226,0.218,0.226,0.124,0.079,south,2.7,No
2021/11/30,09:30,0.158,0.146,0.227,0.221,0.228,0.123,0.079,south,2.9,No
2021/11/30,09:40,0.159,0.146,0.227,0.220,0.227,0.124,0.079,south-southeast,1.4,No
2021/11/30,09:50,0.160,0.147,0.226,0.221,0.226,0.124,0.080,south-southeast,3.4,No
2021/11/30,10:00,0.159,0.145,0.227,0.220,0.224,0.125,0.080,south-southeast,4.7,No
2021/11/30,10:10,0.159,0.146,0.226,0.222,0.225,0.125,0.079,south-southeast,5.2,No
2021/11/30,10:20,0.158,0.146,0.226,0.221,0.225,0.124,0.079,south-southeast,5.3,No
2021/11/30,10:30,0.157,0.145,0.224,0.220,0.226,0.123,0.079,south-southeast,4.5,No
2021/11/30,10:40,0.158,0.146,0.225,0.222,0.225,0.124,0.080,south,4.5,No
2021/11/30,10:50,0.158,0.146,0.226,0.220,0.227,0.124,0.079,south-southeast,5.4,No
2021/11/30,11:00,0.157,0.145,0.225,0.220,0.224,0.124,0.079,south-southeast,5.5,No
2021/11/30,11:10,0.158,0.145,0.225,0.221,0.225,0.124,0.079,south-southeast,4.8,No
2021/11/30,11:20,0.157,0.146,0.225,0.222,0.225,0.124,0.079,south-southeast,5.2,No
2021/11/30,11:30,0.158,0.144,0.226,0.220,0.225,0.124,0.079,south-southeast,5.2,No
2021/11/30,11:40,0.158,0.147,0.225,0.222,0.227,0.124,0.079,south-southeast,6.2,No
2021/11/30,11:50,0.157,0.145,0.228,0.221,0.224,0.125,0.079,south-southeast,6.2,No
2021/11/30,12:00,0.159,0.146,0.225,0.222,0.227,0.124,0.080,south-southeast,6.5,No
2021/11/30,12:10,0.157,0.146,0.227,0.221,0.227,0.125,0.079,south-southeast,6.4,No
2021/11/30,12:20,0.159,0.146,0.226,0.222,0.225,0.124,0.079,south-southeast,6.8,No
2021/11/30,12:30,0.159,0.144,0.227,0.220,0.227,0.124,0.079,south-southeast,6.5,No
2021/11/30,12:40,0.157,0.146,0.227,0.223,0.225,0.124,0.078,south-southeast,6.2,No
2021/11/30,12:50,0.158,0.145,0.226,0.220,0.228,0.125,0.080,south-southeast,6.4,No
2021/11/30,13:00,0.157,0.146,0.226,0.223,0.225,0.124,0.079,south-southeast,6.4,No
2021/11/30,13:10,0.156,0.146,0.229,0.221,0.227,0.124,0.080,south-southeast,5.9,No
2021/11/30,13:20,0.159,0.146,0.225,0.223,0.226,0.125,0.079,south-southeast,5.7,No
2021/11/30,13:30,0.158,0.145,0.227,0.221,0.226,0.124,0.078,south-southeast,6.8,No
2021/11/30,13:40,0.158,0.146,0.225,0.221,0.224,0.125,0.079,south-southeast,7.1,No
2021/11/30,13:50,0.159,0.146,0.227,0.221,0.227,0.124,0.079,south,7.6,No
2021/11/30,14:00,0.159,0.146,0.227,0.222,0.225,0.125,0.079,south-southeast,7.0,No
2021/11/30,14:10,0.159,0.146,0.227,0.220,0.227,0.124,0.079,south,5.7,No
2021/11/30,14:20,0.159,0.145,0.228,0.222,0.224,0.124,0.078,south-southeast,5.6,No
2021/11/30,14:30,0.158,0.145,0.227,0.220,0.226,0.124,0.079,south-southeast,6.3,No
2021/11/30,14:40,0.159,0.145,0.227,0.220,0.225,0.124,0.078,south-southeast,6.9,No
2021/11/30,14:50,0.159,0.146,0.226,0.221,0.228,0.124,0.079,south,7.4,No
2021/11/30,15:00,0.159,0.145,0.228,0.223,0.226,0.124,0.078,south,6.4,No
2021/11/30,15:10,0.159,0.146,0.227,0.221,0.228,0.125,0.079,south,7.5,No
2021/11/30,15:20,0.159,0.147,0.227,0.222,0.226,0.124,0.079,south,8.4,No
2021/11/30,15:30,0.159,0.146,0.227,0.223,0.228,0.124,0.079,south,7.9,No
2021/11/30,15:40,0.158,0.146,0.227,0.222,0.227,0.124,0.079,south,6.7,No
2021/11/30,15:50,0.159,0.146,0.226,0.222,0.227,0.125,0.078,south-southwest,7.4,No
2021/11/30,16:00,0.158,0.146,0.228,0.221,0.228,0.124,0.079,south,6.3,No
2021/11/30,16:10,0.159,0.145,0.227,0.223,0.226,0.124,0.078,south,4.9,No
2021/11/30,16:20,0.159,0.146,0.228,0.220,0.228,0.124,0.080,south-southwest,6.2,No
2021/11/30,16:30,0.158,0.146,0.228,0.221,0.225,0.125,0.079,south,6.2,No
2021/11/30,16:40,0.159,0.145,0.226,0.222,0.228,0.125,0.079,south,6.1,No
2021/11/30,16:50,0.159,0.147,0.228,0.221,0.227,0.125,0.079,south,6.4,No
2021/11/30,17:00,0.160,0.146,0.228,0.221,0.228,0.125,0.079,south,7.9,No
2021/11/30,17:10,0.159,0.147,0.226,0.223,0.228,0.124,0.079,south,7.1,No
2021/11/30,17:20,0.159,0.146,0.228,0.221,0.227,0.125,0.079,south,6.3,No
2021/11/30,17:30,0.159,0.147,0.227,0.223,0.228,0.125,0.079,south,5.9,No
2021/11/30,17:40,0.159,0.146,0.227,0.221,0.225,0.124,0.079,south,6.5,No
2021/11/30,17:50,0.158,0.147,0.226,0.222,0.227,0.125,0.080,south,5.7,No
2021/11/30,18:00,0.159,0.146,0.226,0.223,0.227,0.124,0.079,south,5.3,No
2021/11/30,18:10,0.159,0.147,0.227,0.222,0.226,0.125,0.079,south-southwest,9.8,Yes
2021/11/30,18:20,0.159,0.146,0.228,0.221,0.228,0.124,0.078,south-southwest,8.6,Yes
2021/11/30,18:30,0.159,0.147,0.227,0.223,0.226,0.126,0.079,south,9.0,No
2021/11/30,18:40,0.158,0.147,0.227,0.221,0.227,0.125,0.080,south,7.5,No
2021/11/30,18:50,0.160,0.147,0.227,0.222,0.227,0.125,0.079,south-southwest,8.3,No
2021/11/30,19:00,0.159,0.147,0.226,0.222,0.226,0.126,0.080,south,9.0,No
2021/11/30,19:10,0.159,0.147,0.228,0.222,0.227,0.124,0.080,south,8.7,No
2021/11/30,19:20,0.160,0.146,0.226,0.223,0.227,0.125,0.079,south,8.6,No
2021/11/30,19:30,0.159,0.147,0.227,0.222,0.227,0.125,0.079,south,8.2,No
2021/11/30,19:40,0.159,0.146,0.227,0.222,0.227,0.124,0.079,south,8.9,No
2021/11/30,19:50,0.159,0.147,0.228,0.222,0.225,0.125,0.080,south,7.7,No
2021/11/30,20:00,0.159,0.146,0.227,0.220,0.228,0.124,0.079,south-southwest,8.7,No
2021/11/30,20:10,0.159,0.146,0.228,0.222,0.225,0.125,0.079,south,9.8,No
2021/11/30,20:20,0.158,0.146,0.227,0.221,0.227,0.124,0.079,south,10.0,No
2021/11/30,20:30,0.159,0.147,0.228,0.222,0.228,0.125,0.079,south-southwest,9.0,No
2021/11/30,20:40,0.158,0.147,0.227,0.221,0.226,0.124,0.079,south,9.6,No
2021/11/30,20:50,0.159,0.147,0.226,0.221,0.228,0.124,0.079,south-southwest,10.1,No
2021/11/30,21:00,0.159,0.147,0.227,0.221,0.225,0.124,0.079,south-southwest,8.7,No
2021/11/30,21:10,0.158,0.146,0.226,0.221,0.227,0.124,0.078,south-southwest,8.8,No
2021/11/30,21:20,0.160,0.146,0.226,0.220,0.225,0.124,0.079,south-southwest,9.3,No
2021/11/30,21:30,0.158,0.147,0.227,0.221,0.225,0.124,0.079,south,7.6,No
2021/11/30,21:40,0.159,0.146,0.226,0.221,0.227,0.124,0.079,south,7.6,No
2021/11/30,21:50,0.160,0.146,0.227,0.222,0.225,0.124,0.079,south,8.7,No
2021/11/30,22:00,0.159,0.147,0.225,0.221,0.227,0.124,0.079,south,8.4,No
2021/11/30,22:10,0.159,0.146,0.226,0.220,0.226,0.124,0.079,south,9.8,No
2021/11/30,22:20,0.159,0.146,0.227,0.222,0.227,0.124,0.079,south,10.1,No
2021/11/30,22:30,0.160,0.146,0.226,0.222,0.225,0.124,0.079,south,9.8,No
2021/11/30,22:40,0.159,0.145,0.226,0.222,0.227,0.124,0.078,south,8.4,No
2021/11/30,22:50,0.158,0.145,0.226,0.222,0.226,0.124,0.079,south-southwest,9.8,Yes
2021/11/30,23:00,0.158,0.146,0.226,0.222,0.226,0.123,0.078,south,8.7,No
2021/11/30,23:10,0.158,0.144,0.227,0.222,0.228,0.124,0.079,south,8.1,No
2021/11/30,23:20,0.159,0.146,0.225,0.220,0.226,0.123,0.079,south,8.7,Yes
2021/11/30,23:30,0.158,0.145,0.226,0.222,0.226,0.124,0.079,south,9.0,Yes
2021/11/30,23:40,0.159,0.147,0.226,0.222,0.225,0.124,0.078,south,9.5,Yes
2021/11/30,23:50,0.158,0.146,0.226,0.222,0.226,0.124,0.079,south,9.5,Yes
